"Pseudo-MPEC" for jkN2004

Created 2021 Nov 27 15:07:32 UT using Find_Orb

Click here for an explanation of pseudo-MPECs

 
 Astrometry: 
     jkN2004 LC2021 11 06.59131411 35 26.78 +13 07 27.7    ~B7Eb 22.7 rVNEOCP568
     jkN2004 LC2021 11 06.60265611 35 28.18 +13 07 16.8    ~B7Eb 23.2 rVNEOCP568
     jkN2004 LC2021 11 06.61391611 35 29.53 +13 07 06.0    ~B7Eb 22.3 rVNEOCP568
     jkN2004 LC2021 11 06.62515811 35 30.90 +13 06 55.1    ~B7Eb 22.6 rVNEOCP568
     jkN2004 LC2021 11 06.63638011 35 32.26 +13 06 44.3    ~B7Eb 22.6 rVNEOCP568
     jkN2004 LC2021 11 06.64762611 35 33.63 +13 06 33.5    ~B7Eb 22.5 rVNEOCP568

Station data:
(568) Mauna Kea  (N19.826116 W155.472200)  US/Hawaii.

Orbital elements:  jkN2004
   Perihelion 2021 Aug 2.797464 +/- 76.2828 TT = 19:08:20 (JD 2459429.297464)
Epoch 2021 Nov  7.0 TT = JDT 2459525.5   Earth MOID: 0.7115   AutoNEOCP
M  29.34242303 +/- 93.712369        (J2000 ecliptic)
n   0.30500675 +/- 0.700726         Peri.   86.93308 +/- 80.241119
a   2.18572949 +/- 3.34762          Node     1.90276 +/- 48.551577
e   0.2724990 +/- 0.220232          Incl.   17.22799 +/- 60.953316
P   3.23                   H 18.9   G  0.15   U 12.5  SR
q 1.59012027 +/- 0.493628    Q 2.78133870 +/- 11.7245
From 6 observations 2021 Nov. 6 (81.1 min); mean residual 0".07
Residuals in arcseconds: 
211106 568  .09-  .01-    211106 568  .08-  .05+    211106 568  .05-  .02-    
211106 568  .20+  .00     211106 568  .02-  .03-    211106 568  .04+  .01+    

Ephemerides (geocentric):
Date (UTC) HH   RA              Dec         delta   r     elong  mag " sig PA
---- -- -- --  -------------   -----------  ------ ------ -----  --- ---- ---
2021 11 27 15  12 15 17.214   +07 36 29.46  1.9537 1.7800  65.1 22.9  54d  11
2021 11 27 16  12 15 21.585   +07 35 51.38  1.9534 1.7801  65.1 22.9  54d  11
2021 11 27 17  12 15 25.954   +07 35 13.31  1.9532 1.7802  65.2 22.9  54d  11
2021 11 27 18  12 15 30.322   +07 34 35.25  1.9529 1.7803  65.2 22.9  54d  11
2021 11 27 19  12 15 34.688   +07 33 57.19  1.9526 1.7805  65.2 22.9  54d  11
2021 11 27 20  12 15 39.053   +07 33 19.14  1.9523 1.7806  65.2 22.9  55d  11
2021 11 27 21  12 15 43.416   +07 32 41.09  1.9521 1.7807  65.2 22.9  55d  11
2021 11 27 22  12 15 47.778   +07 32 03.05  1.9518 1.7808  65.3 22.9  55d  11
2021 11 27 23  12 15 52.138   +07 31 25.01  1.9515 1.7809  65.3 22.9  55d  11
2021 11 28 00  12 15 56.497   +07 30 46.99  1.9512 1.7810  65.3 22.9  55d  11
2021 11 28 01  12 16 00.855   +07 30 08.96  1.9510 1.7812  65.3 22.9  55d  11
2021 11 28 02  12 16 05.210   +07 29 30.95  1.9507 1.7813  65.3 22.9  55d  11
2021 11 28 03  12 16 09.565   +07 28 52.94  1.9504 1.7814  65.4 22.9  55d  11
2021 11 28 04  12 16 13.918   +07 28 14.93  1.9501 1.7815  65.4 22.9  55d  11
2021 11 28 05  12 16 18.269   +07 27 36.94  1.9499 1.7816  65.4 22.9  55d  11
2021 11 28 06  12 16 22.619   +07 26 58.94  1.9496 1.7818  65.4 22.9  55d  11
2021 11 28 07  12 16 26.967   +07 26 20.96  1.9493 1.7819  65.5 22.9  55d  11
2021 11 28 08  12 16 31.314   +07 25 42.98  1.9490 1.7820  65.5 22.9  55d  11
2021 11 28 09  12 16 35.660   +07 25 05.01  1.9488 1.7821  65.5 22.9  55d  11
2021 11 28 10  12 16 40.004   +07 24 27.04  1.9485 1.7822  65.5 22.9  55d  11
2021 11 28 11  12 16 44.346   +07 23 49.08  1.9482 1.7824  65.5 22.9  55d  11
2021 11 28 12  12 16 48.687   +07 23 11.12  1.9479 1.7825  65.6 22.9  55d  11
2021 11 28 13  12 16 53.027   +07 22 33.17  1.9477 1.7826  65.6 22.9  55d  11
2021 11 28 14  12 16 57.364   +07 21 55.23  1.9474 1.7827  65.6 22.9  55d  11
2021 11 28 15  12 17 01.701   +07 21 17.30  1.9471 1.7828  65.6 22.9  55d  11
2021 11 28 16  12 17 06.036   +07 20 39.37  1.9468 1.7830  65.6 22.9  55d  11
2021 11 28 17  12 17 10.369   +07 20 01.44  1.9466 1.7831  65.7 22.9  55d  11
2021 11 28 18  12 17 14.701   +07 19 23.52  1.9463 1.7832  65.7 22.9  55d  11
2021 11 28 19  12 17 19.032   +07 18 45.61  1.9460 1.7833  65.7 22.9  55d  11
2021 11 28 20  12 17 23.361   +07 18 07.71  1.9457 1.7834  65.7 22.9  55d  11
2021 11 28 21  12 17 27.688   +07 17 29.81  1.9455 1.7836  65.7 22.9  55d  11
2021 11 28 22  12 17 32.014   +07 16 51.92  1.9452 1.7837  65.8 22.9  55d  11
2021 11 28 23  12 17 36.338   +07 16 14.03  1.9449 1.7838  65.8 22.9  55d  11
2021 11 29 00  12 17 40.661   +07 15 36.15  1.9446 1.7839  65.8 22.9  55d  11
2021 11 29 01  12 17 44.983   +07 14 58.27  1.9444 1.7840  65.8 22.9  55d  11
2021 11 29 02  12 17 49.303   +07 14 20.41  1.9441 1.7841  65.8 22.9  55d  11
2021 11 29 03  12 17 53.621   +07 13 42.55  1.9438 1.7843  65.9 22.9  55d  11
2021 11 29 04  12 17 57.938   +07 13 04.69  1.9435 1.7844  65.9 22.9  55d  11
2021 11 29 05  12 18 02.254   +07 12 26.84  1.9433 1.7845  65.9 22.9  55d  11
2021 11 29 06  12 18 06.567   +07 11 49.00  1.9430 1.7846  65.9 22.9  55d  11
2021 11 29 07  12 18 10.880   +07 11 11.16  1.9427 1.7847  66.0 22.9  55d  11
2021 11 29 08  12 18 15.191   +07 10 33.33  1.9424 1.7849  66.0 22.9  55d  11
2021 11 29 09  12 18 19.500   +07 09 55.51  1.9422 1.7850  66.0 22.9  55d  11
2021 11 29 10  12 18 23.808   +07 09 17.69  1.9419 1.7851  66.0 22.9  55d  11
2021 11 29 11  12 18 28.114   +07 08 39.88  1.9416 1.7852  66.0 22.9  55d  11
2021 11 29 12  12 18 32.419   +07 08 02.07  1.9413 1.7853  66.1 22.9  55d  11
2021 11 29 13  12 18 36.723   +07 07 24.28  1.9410 1.7855  66.1 22.9  55d  11
2021 11 29 14  12 18 41.024   +07 06 46.48  1.9408 1.7856  66.1 22.9  55d  11